Regional Weather Roundup
Issued by NWS Jackson, KY

Home | Current Version | Previous Version | Text Only | Print | Product List | Glossary On
Versions: 1 2 3 4 5 6 7 8 9 10 11 12 13 14 15 16 17 18 19 20 21 22 23 24 25 26 27 28 29 30 31 32 33 34 35 36 37 38 39 40 41 42 43 44 45 46 47 48 49 50
000
ASUS43 KJKL 071310
RWRJKL

EAST KENTUCKY HOURLY WEATHER ROUNDUP
NATIONAL WEATHER SERVICE JACKSON KY
800 AM EST WED DEC 07 2016

NOTE: "FAIR" INDICATES FEW OR NO CLOUDS BELOW 12,000 FEET WITH
NO SIGNIFICANT WEATHER AND/OR OBSTRUCTIONS TO VISIBILITY.

* THESE REPORTS ARE NOT UNDER NWS QUALITY CONTROL AND MAY NOT
  REPORT WEATHER SUCH AS PRECIPITATION AND FOG.

KYZ079-080-083-085-087-088-110-112-115-119-120-071400
...EASTERN KENTUCKY...

CITY           SKY/WX    TMP DP  RH WIND       PRES   REMARKS
JACKSON        CLEAR     33  28  81 VRB5      30.11R WCI  29
LONDON         CLEAR     34  31  88 CALM      30.12R
SOMERSET*      PTCLDY    32  32 100 CALM      30.15R
MONTICELLO*    CLEAR     34  31  88 N14       30.15R WCI  25
WILLIAMSBURG*  CLOUDY    36  36 100 CALM      30.12S
MIDDLESBORO*   CLOUDY    37  36  98 NW5       30.12R WCI  33
HARLAN APT*    CLOUDY    36  34  93 CALM      30.10R
PIKE CO APT*   CLOUDY    36  35  96 N7        30.10R WCI  30
BIG SANDY APT* CLOUDY    35  31  85 NW5       30.12R WCI  31
MOREHEAD APT*  MOSUNNY   32  30  93 CALM      30.15S
ASHLAND*       PTCLDY    36  30  80 CALM      30.14R
$$

KYZ035-036-041-042-044-050-067-078-099-071400
...CENTRAL KENTUCKY...

CITY           SKY/WX    TMP DP  RH WIND       PRES   REMARKS
MT STERLING*   CLOUDY    30  30 100 CALM      30.15S FOG
FLEMING/MASON* CLOUDY    32  29  88 CALM      30.15S
DANVILLE*      PTCLDY    32  30  93 CALM      30.15R FOG
LEXINGTON      PTCLDY    32  28  85 CALM      30.14S
FRANKFORT      CLOUDY    30  27  88 CALM      30.15R
LOUISVILLE     PTCLDY    34  26  72 NW6       30.18R WCI  29
LEBANON*         N/A     32  27  80 CALM      30.16R
GLASGOW*       CLEAR     32  32 100 N3        30.16R
BOWLING GREEN  PTCLDY    34  32  92 MISG      30.17S FOG
$$

KYZ091>093-OHZ055-061-077-WVZ005-015-034-035-042-071400
...SOUTHERN OHIO/WEST VIRGINIA...

CITY           SKY/WX    TMP DP  RH WIND       PRES   REMARKS
COVINGTON      MOCLDY    30  25  81 W5        30.14R WCI  25
COLUMBUS       MOCLDY    29  26  89 W6        30.10S WCI  23
DAYTON         PTCLDY    24  19  81 SW6       30.12R WCI  17
WILMINGTON     CLOUDY    28  24  85 SW5       30.12R WCI  23
HUNTINGTON     PTCLDY    35  29  78 NW7       30.13R WCI  29
CHARLESTON     PTCLDY    37  32  82 VRB3      30.11R
PINEVILLE*     MOCLDY    34  32  92 MISG      30.12R FOG
BECKLEY        CLOUDY    33  29  85 NW6       30.04R WCI  28
BLUEFIELD      CLOUDY    34  31  88 NW7       30.03R WCI  28
LOGAN CO APT*  CLOUDY    36  34  93 CALM      30.08R
$$

VAZ002-007-008-TNZ017-027-036-066-071-071400
...SOUTHWEST VIRGINIA/EAST TENNESSEE...

CITY           SKY/WX    TMP DP  RH WIND       PRES   REMARKS
WISE*          CLEAR     34  34 100 CALM      30.07R
JONESVILLE*      N/A     32  32 100 CALM      30.12R FOG
ABINGDON*      CLEAR     36  33  90 CALM      30.07R
BRISTOL        PTCLDY    36  33  89 W3        30.09R
MORRISTOWN*    CLOUDY    41  37  87 CALM      30.08R
SEVIERVILLE*   CLOUDY    43  37  81 E5        30.09R
KNOXVILLE      CLOUDY    43  35  73 N7        30.08R
OAK RIDGE      PTCLDY    40  35  83 CALM      30.11R
CROSSVILLE     MOCLDY    36  33  89 NE3       30.08R
NASHVILLE      PTCLDY    36  32  85 N5        30.16R WCI  32
$$

...KEY TO REMARKS...
VSB - VISIBILITY IN MILES
WCI - WIND CHILL INDEX
HX  - HEAT INDEX

$$



USA.gov is the U.S. government's official web portal to all federal, state and local government web resources and services.